Location: Unspecified
(42.9300°N, 71.1866°W)
Time: 14:12:32
(UTC-04:00)

Okean 3 - Visible Passes

Search period start: 18 April 2014 00:00
Search period end: 28 April 2014 00:00
Orbit: 584 x 612 km, 82.5° (Epoch: 18 April)

Date Brightness Start Highest point End Pass type
(mag) Time Alt. Az. Time Alt. Az. Time Alt. Az.
18 Apr 3.9 21:10:57 36° SE 21:11:54 42° E 21:15:56 10° NNE visible
18 Apr 6.1 22:47:36 13° W 22:49:32 17° WNW 22:52:21 10° NNW visible
19 Apr 3.4 21:20:40 32° S 21:22:31 68° E 21:26:46 10° NNE visible
19 Apr 6.5 22:59:15 10° W 23:00:26 11° WNW 23:01:37 10° NW visible
20 Apr 3.6 21:30:14 20° SSW 21:33:11 74° W 21:37:27 10° N visible
21 Apr 5.2 20:04:28 10° ESE 20:06:53 15° E 20:09:18 10° NE visible
21 Apr 4.5 21:39:47 10° SSW 21:43:53 45° WNW 21:48:00 10° N visible
22 Apr 4.7 20:14:01 10° SE 20:17:23 23° E 20:20:45 10° NE visible
22 Apr 5.4 21:50:55 10° SW 21:54:39 29° WNW 21:58:23 10° NNW visible
23 Apr 4.1 20:24:01 10° SSE 20:27:55 36° E 20:31:49 10° NNE visible
23 Apr 6.1 22:02:23 10° WSW 22:05:27 19° WNW 22:08:31 10° NNW visible
24 Apr 3.5 20:34:19 10° S 20:38:30 58° E 20:42:40 10° NNE visible
24 Apr 6.5 22:14:28 10° W 22:16:19 13° WNW 22:18:09 10° NW visible
25 Apr 3.5 20:44:51 10° S 20:49:07 86° W 20:53:22 10° N visible
26 Apr 4.3 20:55:38 10° SSW 20:59:47 53° W 21:03:56 10° N visible
27 Apr 5.3 21:06:39 10° SW 21:10:30 33° WNW 21:14:21 10° N visible
